EHI
0 0 0 0 0 0 0 0 0 0 0 0 0 1 2 2 1 2 2 1 0 0 0 0 0 0 0 0 0 0 0 0 0 0 0 0 0 0
0 0 0 0 0 0 0 0 0 0 0 0 0 1 2 1 1 2 2 1 0 0 0 0 0 0 0 0 0 0 0 0 0 0 0 0 0 0
0 0 0 0 0 0 0 0 0 0 0 0 0 0 1 2 2 3 3 1 0 0 0 0 0 0 0 0 0 0 0 0 0 0 0 0 0 0
0 0 0 0 0 0 0 0 0 0 0 0 0 1 2 3 3 3 3 2 0 0 0 0 0 0 0 0 0 0 0 0 0 0 0 0 0 0
0 0 0 0 0 0 0 0 0 0 0 0 1 2 3 3 3 3 3 2 0 0 0 0 0 0 0 0 0 0 0 0 0 0 0 0 0 0
0 0 0 0 0 0 0 0 0 0 0 0 1 2 3 3 3 3 3 2 1 0 0 0 0 0 0 0 0 0 0 0 0 0 0 0 0 0
1 0 0 0 0 0 0 0 0 0 0 0 1 1 2 3 3 3 3 2 1 0 0 0 0 0 0 0 0 0 0 0 0 0 0 0 0 0
1 0 0 0 0 0 0 0 0 0 0 0 1 1 1 2 2 3 3 2 1 1 1 0 0 0 0 0 0 0 0 0 0 0 0 0 0 0
1 1 1 1 0 0 0 0 0 0 0 0 1 1 1 1 1 2 3 3 2 2 1 0 0 0 0 0 0 0 0 0 0 0 0 0 0 0
2 2 2 1 0 0 0 0 0 0 0 0 0 0 0 0 1 2 3 3 2 2 2 1 0 0 0 0 0 0 0 0 0 0 0 0 0 0
2 1 1 1 0 0 0 0 0 0 0 0 0 0 0 1 2 3 3 3 1 1 1 1 1 1 1 0 0 0 0 0 0 0 0 0 0 0
1 0 0 0 0 0 0 0 0 0 0 0 0 0 1 1 3 3 3 3 1 1 1 1 1 2 2 1 0 0 0 0 0 0 0 0 0 0
0 0 0 0 0 0 0 0 0 0 0 0 0 0 1 2 3 3 3 3 3 2 2 2 2 3 3 2 1 0 0 0 0 0 0 0 0 0
0 0 0 0 0 0 0 0 0 0 0 0 0 0 1 2 3 3 3 3 3 3 3 3 3 3 3 2 1 0 0 0 0 0 0 0 0 0
0 0 0 0 0 0 0 0 0 0 0 0 0 0 0 1 3 3 3 3 2 2 2 3 3 3 3 2 1 0 0 0 0 0 0 0 0 0
0 0 0 0 1 1 0 0 0 0 0 0 0 0 0 1 2 2 2 1 1 0 1 1 2 2 2 2 1 0 0 0 0 0 0 0 0 0
0 0 1 1 1 1 1 1 1 0 0 0 0 0 0 0 1 1 1 0 0 0 0 0 1 1 1 1 0 0 0 0 0 0 0 0 0 0
0 0 0 0 1 2 2 2 1 0 0 0 0 0 0 0 0 0 0 0 0 0 0 0 0 0 0 0 0 0 0 0 0 0 0 0 0 0
0 0 0 0 1 2 3 3 1 0 0 0 0 0 0 0 0 0 0 0 0 0 0 0 0 0 0 0 0 0 0 0 0 0 0 0 0 0
0 0 0 0 1 2 2 2 1 0 0 0 0 0 0 0 0 0 0 0 0 0 0 0 0 0 0 0 0 0 0 0 0 0 0 0 0 0
0 0 0 0 0 1 1 1 0 0 0 0 0 0 0 0 0 0 0 0 0 0 0 0 0 0 0 0 0 0 0 0 0 0 0 0 0 0
0 0 0 0 0 0 0 0 0 0 0 0 0 0 0 0 0 0 0 0 0 0 0 0 0 0 0 0 0 0 0 0 0 0 0 0 0 0
0 0 0 0 0 0 0 0 0 0 0 0 0 0 0 0 0 0 0 0 0 0 0 0 0 0 0 0 0 0 0 0 0 0 0 0 0 0
Wind_Speed
0 0 0 0 0 0 1 1 1 1 2 1 1 2 1 1 3 3 3 6 7 7 7 6 6 6 5 5 4 4 5 5 6 7 8 8 9 9
1 1 0 1 1 1 1 1 1 1 1 2 1 0 0 1 3 2 2 5 8 9 9 8 8 7 6 6 6 5 5 5 5 6 6 8 9 9
1 1 1 1 1 1 1 1 1 1 1 2 1 1 1 1 1 2 2 3 4 7 8 9 9 8 8 7 7 6 6 6 6 6 6 7 8 8
1 1 1 1 1 1 2 2 2 1 1 2 2 1 2 2 2 3 3 3 3 6 8 9 10 10 9 8 7 7 6 6 6 6 6 7 7 7
1 1 1 0 1 2 2 2 2 2 1 2 3 1 1 1 1 2 3 2 3 3 6 8 9 10 10 9 9 8 7 7 7 6 6 7 7 7
1 1 1 1 1 2 2 2 2 2 3 2 2 1 1 1 0 1 2 1 2 2 2 3 7 9 10 10 10 9 9 8 8 7 7 7 6 6
1 1 1 1 2 2 3 2 2 2 2 2 2 2 1 1 1 2 2 2 2 1 1 2 2 3 5 8 9 10 10 9 9 8 8 7 7 7
1 2 2 2 3 3 4 5 4 4 2 2 2 2 2 2 2 3 2 2 3 1 1 3 2 2 3 3 6 9 10 9 9 9 9 8 8 8
2 2 3 2 1 1 3 4 5 7 7 4 3 3 3 2 2 3 3 3 4 3 2 3 2 2 2 2 7 8 9 10 10 10 9 9 8 8
3 4 3 2 2 1 3 3 3 2 4 4 4 4 4 3 3 3 4 4 4 3 1 2 2 2 2 1 6 7 8 8 9 10 9 9 8 8
4 3 2 2 2 2 2 3 3 3 3 3 5 6 7 7 4 2 3 3 3 3 1 1 2 2 2 2 2 6 7 8 8 8 8 8 8 7
2 2 2 2 2 2 2 3 3 3 3 3 4 5 6 6 6 4 3 2 3 3 1 1 2 2 2 2 1 2 3 5 7 7 8 8 7 4
2 1 1 3 3 3 3 4 5 4 4 4 4 3 3 3 3 4 3 3 3 3 2 1 2 2 2 2 2 1 1 1 2 3 5 6 7 6
3 2 0 2 4 5 4 5 6 5 3 3 3 2 2 2 2 3 4 4 4 4 4 2 2 2 2 2 3 2 1 1 1 1 1 3 4 6
3 3 3 6 5 5 7 7 5 3 3 3 3 2 2 2 2 2 2 3 3 4 3 2 2 2 2 2 2 2 2 1 1 1 1 1 2 2
3 4 6 8 6 5 5 4 4 3 3 3 3 2 2 2 2 2 2 2 2 2 2 1 1 2 2 2 2 2 2 1 1 1 1 1 2 2
2 2 3 2 2 3 3 3 3 3 3 3 2 2 2 2 2 1 1 1 1 1 1 1 1 1 1 1 2 2 1 1 1 1 1 1 1 1
0 2 3 2 3 3 2 2 2 2 2 2 2 2 2 2 2 1 1 1 1 1 1 1 1 1 1 1 1 2 2 2 1 2 2 1 2 1
1 3 3 3 3 3 2 2 1 1 1 2 2 1 1 1 1 1 1 1 1 1 1 1 1 1 2 3 2 2 2 2 2 2 2 1 2 1
3 4 3 2 2 2 2 1 1 0 0 1 1 1 1 1 1 1 1 1 1 1 1 1 1 1 1 2 2 2 3 2 2 2 2 1 1 1
3 3 2 2 2 2 1 1 0 0 0 0 1 1 1 1 1 1 1 1 2 1 2 2 2 2 1 0 1 2 2 2 1 1 2 2 2 2
3 2 2 1 1 2 1 1 0 0 0 1 1 1 1 1 2 2 2 1 1 1 2 1 1 1 1 1 2 2 2 2 2 2 2 2 2 2
2 1 2 1 1 1 1 1 1 1 1 1 1 1 1 1 2 2 2 2 1 1 2 2 1 1 1 1 1 1 2 2 2 2 2 3 5 5
Wind_Direction
122 86 239 264 312 289 261 250 272 303 293 268 231 180 174 159 175 191 183 201 208 217 220 224 229 235 241 240 246 259 268 269 265 258 254 254 252 249
159 134 275 301 287 273 262 253 250 258 289 301 293 262 215 250 193 205 216 216 216 216 216 217 220 225 229 231 236 244 254 259 264 262 258 255 253 248
200 168 191 241 296 301 312 289 279 298 277 287 283 268 258 244 232 226 226 214 219 221 216 215 217 222 225 228 233 238 243 249 255 259 261 262 256 248
182 169 229 253 292 303 298 291 292 274 248 269 267 245 243 227 219 229 247 239 229 219 212 214 217 221 221 224 228 232 233 239 246 253 257 258 257 256
188 203 230 254 281 288 288 300 300 303 278 262 266 249 244 255 258 268 265 247 259 229 209 218 221 222 220 221 224 227 229 233 237 243 250 252 251 254
222 225 214 226 258 278 275 288 300 296 277 271 266 276 271 291 308 281 288 277 277 272 231 229 223 220 223 223 224 224 226 230 233 237 240 241 241 244
249 249 228 212 259 261 278 281 288 284 289 290 286 298 304 324 331 303 296 296 289 286 271 268 234 223 222 226 228 227 225 227 230 233 235 236 237 237
259 269 244 215 235 243 253 258 249 253 275 282 284 288 295 309 318 306 306 309 298 291 286 278 265 252 238 202 211 213 217 220 223 227 231 233 235 238
241 254 273 254 225 270 271 267 258 245 229 231 251 268 275 279 294 294 292 287 279 274 274 273 268 273 261 223 203 210 212 217 222 225 230 232 233 237
241 240 244 247 263 298 292 283 274 256 233 221 229 247 255 246 252 266 273 281 277 269 261 279 285 285 289 247 209 213 217 223 229 231 231 231 232 236
241 241 231 213 200 266 277 283 286 283 260 245 241 249 253 250 244 260 275 286 293 287 263 263 277 288 280 266 224 221 226 228 234 237 232 228 229 235
250 219 184 191 188 215 250 269 272 281 298 288 268 254 244 240 229 219 235 263 279 287 286 282 283 310 302 285 265 228 236 240 240 241 234 230 225 225
281 251 191 192 204 220 244 255 260 271 278 270 259 247 236 231 214 208 217 235 259 272 286 306 292 287 274 294 297 271 246 247 230 243 235 233 231 222
280 298 214 210 238 246 246 255 272 280 266 268 267 257 253 245 229 223 226 232 233 242 260 267 261 262 277 292 292 288 271 252 242 254 243 242 237 236
281 298 281 251 253 253 246 253 261 254 253 259 262 258 251 242 235 237 239 236 242 252 249 230 241 255 242 258 278 285 292 280 242 245 247 243 230 220
265 276 267 256 251 256 259 240 231 240 248 255 264 268 264 253 239 234 235 232 244 269 262 228 237 248 259 267 265 277 286 268 265 266 252 259 264 246
303 265 265 256 235 229 233 230 221 220 237 252 261 269 278 282 272 254 229 243 269 279 280 260 220 189 267 296 298 299 294 296 285 272 273 284 286 279
315 270 272 269 267 258 248 243 226 210 223 241 245 248 254 262 279 288 273 245 259 270 279 284 270 267 301 312 278 281 288 281 289 291 287 280 294 314
237 259 263 266 267 270 266 256 243 207 209 240 250 256 269 270 277 284 286 290 294 289 289 286 282 275 292 301 296 265 281 292 298 288 279 268 271 276
236 255 261 265 269 274 276 277 285 328 187 254 273 273 270 266 271 271 266 268 273 280 303 298 292 287 271 280 292 298 270 271 282 284 287 287 285 266
251 249 255 262 274 285 278 268 109 77 6 301 279 272 261 265 282 287 283 279 268 277 287 283 264 247 237 283 308 311 315 288 289 278 285 293 294 280
269 278 282 278 284 296 300 312 12 115 277 280 285 281 286 290 282 279 286 283 273 271 286 288 253 230 232 251 273 292 321 329 302 304 296 261 270 276
268 286 291 285 285 272 270 313 325 307 282 288 298 298 293 270 266 272 276 281 295 306 302 298 299 285 274 268 274 291 311 314 315 303 291 267 242 245